CZ-4 DEB, 26123

Orbit data source: Space-Track

CZ-4 DEB, 26123 is space debris in SSO originally from a launch on Thu, 14 Oct 1999 UTC launched from the Taiyaun Space Center, China (TSC). Debris objects in space refer to the collection of defunct objects orbiting the Earth. Examples of debris include non-operational satellites, rocket bodies, and fragments generated from explosions, collisions, or faulty payload assembly.

Loading next visibility...
Identifier
26123, 1999-057K
Orbit
SSO
Country
Flag of CNCN / PRC
Related business
Manufacturer
Unknown
Mission
Spacecraft
Bus & Motor
Unknown
Mass
Unknown
Launch date (UTC)
1999-10-14 (27 years ago)
Launch vehicle
Unknown
Launch site
Taiyaun Space Center, China (TSC)
Object type
Payload
Rocket body
Debris
Shape & HBR
Unknown shape, 0.1 m
Radar Cross Section
Medium (>0.1 m² and <1 m²)

Expand to show TLE details & history
Last TLE update: 1 day ago

TLE from 1 day ago
0 CZ-4 DEB
1 26123U 99057K   26171.00948537  .00001314  00000-0  23684-3 0  9992
2 26123  98.6629 183.6659 0052277 259.0668 100.4651 14.67573532390926
Epoch: 2026-06-20T00:13Z
TLE epoch observation values (Epoch: 2026-06-20T00:13:39.535Z)
Latitude
0.00001°
Longitude
-87.97909°
Altitude
678.684 km
Speed
7.514 km/s
True Right ascension
12h 14m 39s
True Declination
0° 00' 00"
Sunlit
Object was in daylight at epoch
Visualization orbit readout
Latitude
Unknown
Longitude
Unknown
Altitude
Unknown
Speed
Unknown
Apparent Right ascension
Unknown
Apparent Declination
Unknown
Sunlit
N/A
Visualization observer readout
Local Sidereal Time
21:25:53
Azimuth
Unknown
Elevation
Unknown
Doppler factor
Unknown
Orbital elements
Apogee altitude
702.742 km
Perigee altitude
629.094 km
Semi-major axis
7,044.055 km
Eccentricity
0.00523
Inclination
98.6629°
RAAN
183.6659°
Arg. of periapsis
259.0668°
True anomaly
101.05348°
Mean anomaly
100.4651°
Eccentric anomaly
100.75936°
Mean motion
3.67121 °/min
Orbital period
98.06 mins
BSTAR
0.00023684
Loading maneuver chart data...
Computing Atmospheric mass density...

Documentation

Showing up to 5 results
|